TimeEDT,TemperatureF,Dew PointF,Humidity,Sea Level PressureIn,VisibilityMPH,Wind Direction,Wind SpeedMPH,Gust SpeedMPH,PrecipitationIn,Events,Conditions,WindDirDegrees,DateUTC
12:15 AM,74.1,68.2,82,30.11,10.0,South,3.5,-,N/A,,Overcast,190,2013-07-10 04:15:00
12:35 AM,73.8,68.0,82,30.10,10.0,Calm,Calm,-,N/A,,Overcast,0,2013-07-10 04:35:00
12:55 AM,73.0,67.8,84,30.10,10.0,Calm,Calm,-,N/A,,Scattered Clouds,0,2013-07-10 04:55:00
1:15 AM,72.5,68.0,86,30.09,10.0,Calm,Calm,-,N/A,,Clear,0,2013-07-10 05:15:00
1:35 AM,72.5,67.8,85,30.08,10.0,SSE,3.5,-,N/A,,Scattered Clouds,150,2013-07-10 05:35:00
1:55 AM,71.8,67.3,86,30.08,10.0,South,4.6,-,N/A,,Clear,170,2013-07-10 05:55:00
2:15 AM,71.8,67.1,85,30.08,10.0,SSW,4.6,-,N/A,,Clear,200,2013-07-10 06:15:00
2:35 AM,71.6,66.7,85,30.08,10.0,Calm,Calm,-,N/A,,Clear,0,2013-07-10 06:35:00
2:55 AM,70.9,66.6,86,30.06,10.0,Calm,Calm,-,N/A,,Clear,0,2013-07-10 06:55:00
3:15 AM,71.2,66.6,85,30.06,10.0,Calm,Calm,-,N/A,,Clear,0,2013-07-10 07:15:00
3:55 AM,68.9,65.3,88,30.06,7.0,Calm,Calm,-,N/A,,Scattered Clouds,0,2013-07-10 07:55:00
4:15 AM,69.1,65.8,89,30.06,10.0,Calm,Calm,-,N/A,,Mostly Cloudy,0,2013-07-10 08:15:00
4:35 AM,69.8,66.2,88,30.06,10.0,Calm,Calm,-,N/A,,Mostly Cloudy,0,2013-07-10 08:35:00
4:55 AM,70.3,66.4,87,30.06,10.0,Calm,Calm,-,N/A,,Overcast,0,2013-07-10 08:55:00
5:15 AM,70.9,66.6,86,30.06,10.0,Calm,Calm,-,N/A,,Scattered Clouds,0,2013-07-10 09:15:00
5:35 AM,70.3,66.6,88,30.06,10.0,Calm,Calm,-,N/A,,Mostly Cloudy,0,2013-07-10 09:35:00
5:55 AM,70.9,66.7,87,30.06,10.0,Calm,Calm,-,N/A,,Mostly Cloudy,0,2013-07-10 09:55:00
6:15 AM,70.7,66.7,87,30.06,10.0,Calm,Calm,-,N/A,,Scattered Clouds,0,2013-07-10 10:15:00
6:35 AM,70.9,66.9,87,30.06,10.0,Calm,Calm,-,N/A,,Clear,0,2013-07-10 10:35:00
6:55 AM,70.7,67.1,88,30.06,10.0,Calm,Calm,-,N/A,,Clear,0,2013-07-10 10:55:00
7:15 AM,70.2,67.1,90,30.07,7.0,Calm,Calm,-,N/A,,Mostly Cloudy,0,2013-07-10 11:15:00
7:35 AM,70.9,67.6,89,30.07,7.0,Calm,Calm,-,N/A,,Overcast,0,2013-07-10 11:35:00
7:55 AM,72.0,68.0,87,30.07,10.0,Calm,Calm,-,N/A,,Overcast,0,2013-07-10 11:55:00
8:15 AM,72.9,68.7,87,30.07,10.0,Calm,Calm,-,N/A,,Mostly Cloudy,0,2013-07-10 12:15:00
8:35 AM,73.6,68.4,84,30.07,10.0,Calm,Calm,-,N/A,,Mostly Cloudy,0,2013-07-10 12:35:00
8:55 AM,74.7,68.7,82,30.07,10.0,South,3.5,-,N/A,,Overcast,170,2013-07-10 12:55:00
9:15 AM,76.1,68.9,78,30.08,10.0,South,3.5,-,N/A,,Mostly Cloudy,170,2013-07-10 13:15:00
9:35 AM,76.6,68.5,76,30.08,10.0,South,5.8,-,N/A,,Overcast,180,2013-07-10 13:35:00
9:55 AM,76.1,68.5,77,30.07,10.0,South,4.6,-,N/A,,Mostly Cloudy,170,2013-07-10 13:55:00
10:15 AM,77.2,69.4,77,30.07,10.0,South,4.6,-,N/A,,Mostly Cloudy,190,2013-07-10 14:15:00
10:35 AM,78.3,69.3,74,30.07,10.0,South,4.6,-,N/A,,Mostly Cloudy,190,2013-07-10 14:35:00
10:55 AM,78.4,69.1,73,30.08,10.0,South,4.6,-,N/A,,Overcast,190,2013-07-10 14:55:00
11:15 AM,78.1,69.1,74,30.08,10.0,South,3.5,-,N/A,,Overcast,180,2013-07-10 15:15:00
11:35 AM,77.4,69.4,76,30.08,10.0,Calm,Calm,-,N/A,,Overcast,0,2013-07-10 15:35:00
11:55 AM,77.2,69.8,78,30.08,10.0,Calm,Calm,-,N/A,,Overcast,0,2013-07-10 15:55:00
12:15 PM,77.4,69.8,77,30.08,10.0,Calm,Calm,-,N/A,Thunderstorm,Overcast,0,2013-07-10 16:15:00
12:35 PM,77.7,70.0,77,30.07,10.0,SW,3.5,-,N/A,,Overcast,220,2013-07-10 16:35:00
12:55 PM,78.4,69.6,74,30.07,10.0,Calm,Calm,-,N/A,,Overcast,0,2013-07-10 16:55:00
1:15 PM,79.2,69.3,72,30.05,10.0,South,3.5,-,N/A,,Overcast,180,2013-07-10 17:15:00
1:35 PM,80.2,69.3,69,30.05,10.0,SSW,3.5,-,N/A,,Overcast,200,2013-07-10 17:35:00
1:55 PM,82.0,68.7,64,30.04,10.0,SW,3.5,-,N/A,,Scattered Clouds,220,2013-07-10 17:55:00
2:15 PM,82.8,68.7,62,30.03,10.0,SSW,6.9,-,N/A,,Mostly Cloudy,210,2013-07-10 18:15:00
2:35 PM,83.1,69.4,63,30.03,10.0,SSW,4.6,-,N/A,,Mostly Cloudy,210,2013-07-10 18:35:00
2:55 PM,83.3,69.1,62,30.02,10.0,South,5.8,-,N/A,,Scattered Clouds,190,2013-07-10 18:55:00
3:15 PM,82.8,68.9,63,30.01,10.0,WSW,6.9,-,N/A,,Scattered Clouds,240,2013-07-10 19:15:00
3:35 PM,81.5,69.4,67,30.01,10.0,SW,5.8,-,N/A,,Light Drizzle,220,2013-07-10 19:35:00
3:55 PM,79.0,69.8,73,30.00,10.0,SW,11.5,-,N/A,Rain-Thunderstorm,Light Thunderstorms and Rain,230,2013-07-10 19:55:00
4:15 PM,74.5,68.0,80,29.99,10.0,SSW,12.7,-,N/A,Rain,Light Rain,210,2013-07-10 20:15:00
4:35 PM,76.1,66.9,73,30.00,10.0,SSW,13.8,18.4,N/A,,Scattered Clouds,210,2013-07-10 20:35:00
4:55 PM,75.4,65.5,71,30.00,10.0,SW,12.7,18.4,N/A,,Clear,220,2013-07-10 20:55:00
5:15 PM,74.5,65.8,74,29.98,10.0,SSW,9.2,16.1,N/A,,Clear,200,2013-07-10 21:15:00
5:35 PM,75.4,66.0,73,29.98,10.0,South,10.4,-,N/A,,Clear,190,2013-07-10 21:35:00
5:55 PM,76.6,65.7,69,29.98,10.0,SSW,9.2,-,N/A,,Clear,200,2013-07-10 21:55:00
6:15 PM,74.8,66.2,74,29.98,10.0,SSW,5.8,-,N/A,,Clear,200,2013-07-10 22:15:00
6:35 PM,74.7,66.6,76,29.98,10.0,SSW,4.6,-,N/A,,Clear,200,2013-07-10 22:35:00
6:55 PM,75.2,67.3,76,29.98,10.0,SSW,4.6,-,N/A,,Clear,200,2013-07-10 22:55:00
7:15 PM,75.2,68.2,79,29.98,10.0,SSE,5.8,-,N/A,,Clear,150,2013-07-10 23:15:00
7:35 PM,75.2,68.0,78,30.00,10.0,South,6.9,-,N/A,,Scattered Clouds,170,2013-07-10 23:35:00
7:55 PM,75.2,67.1,76,30.00,10.0,South,8.1,-,N/A,,Scattered Clouds,190,2013-07-10 23:55:00
8:15 PM,74.7,67.3,78,30.00,10.0,SSW,8.1,-,N/A,,Mostly Cloudy,210,2013-07-11 00:15:00
8:35 PM,74.5,68.0,80,30.01,10.0,SSW,8.1,-,N/A,,Mostly Cloudy,200,2013-07-11 00:35:00
8:55 PM,73.9,68.0,82,30.00,10.0,SSW,9.2,-,N/A,,Mostly Cloudy,200,2013-07-11 00:55:00
9:15 PM,73.4,68.0,83,29.99,10.0,South,4.6,-,N/A,,Scattered Clouds,180,2013-07-11 01:15:00
9:35 PM,73.0,68.0,84,29.99,10.0,South,3.5,-,N/A,,Light Drizzle,180,2013-07-11 01:35:00
9:55 PM,72.5,68.0,86,29.98,10.0,South,4.6,-,N/A,Rain,Light Rain,190,2013-07-11 01:55:00
10:15 PM,71.4,67.5,87,29.97,10.0,South,5.8,-,N/A,,Clear,170,2013-07-11 02:15:00
10:35 PM,71.6,67.5,87,29.98,10.0,South,4.6,-,N/A,,Clear,170,2013-07-11 02:35:00
10:55 PM,71.4,67.5,87,29.99,10.0,SSE,4.6,-,N/A,,Scattered Clouds,150,2013-07-11 02:55:00
11:15 PM,71.6,67.6,87,29.99,10.0,South,3.5,-,N/A,,Mostly Cloudy,170,2013-07-11 03:15:00
11:35 PM,71.4,67.1,86,29.99,10.0,South,5.8,-,N/A,,Scattered Clouds,180,2013-07-11 03:35:00
11:55 PM,71.1,67.1,87,29.98,10.0,South,5.8,-,N/A,,Clear,180,2013-07-11 03:55:00